sat.trackr.live / text

‹ back to catalog

STARLINK-34311

NORAD 64206 · 2025-117D

PAYLOAD ACTIVE UNKNOWN

§ Identity

Operator
Country
US
Launch date
2025-05-31
Launch site
AFWTR
Launch vehicle
Mass (kg)
RCS (m²)

Purposes: comms

External: N2YO · Heavens-Above · Gunter

§ Orbital elements

Epoch: 2026-05-25T02:50:36.495744Z

Period
94.10 min
Inclination
53.1601°
Eccentricity
0.0001086
Mean motion
15.30206576 rev/d
Perigee alt
474.5 km
Apogee alt
475.9 km
Semi-major
6,853.3 km
B*
8.4301e-4
RAAN
44.8584°
Arg perigee
73.8107°
Mean anomaly
286.3013°
Rev number
5,625

§ Raw data

STARLINK-343111 64206U 25117D   26145.11847796  .00024696  00000+0  84301-3 0  99902 64206  53.1601  44.8584 0001086  73.8107 286.3013 15.30206576 56256

JSON: /api/v1/satellites/64206 · /tle

For live sub-satellite position, see the globe view (requires WebGL).

§ Visibility from observer

Set your observer location to see the next 7 days of passes ≥ 10°. The values pass through the URL so the page stays shareable.

No JS? Fill the form by hand. The geolocation button needs JavaScript.